Wetbulb
71.57 71.39 70.84 70.18 69.62 68.33 67.80 67.39 66.89 67.40 68.95 69.05 69.53 69.72 68.87 67.42 65.75 65.86 68.06 67.00 69.94 69.95 69.33 68.75 68.15 67.15 66.41 66.05 66.34 66.03 65.96 65.99 66.01
70.83 70.92 70.50 70.02 69.66 68.30 68.02 67.78 67.35 68.13 69.29 68.99 69.34 69.35 67.63 65.51 65.22 65.65 66.07 67.08 69.84 69.71 69.18 68.31 67.47 66.29 66.33 66.95 66.54 66.45 65.56 65.58 65.59
70.52 70.55 70.42 70.19 69.06 68.35 68.01 67.88 68.18 68.76 68.94 69.20 69.50 68.23 66.56 64.69 64.59 65.01 66.06 68.43 69.15 68.86 68.47 67.79 66.66 66.49 65.47 65.91 65.01 65.29 66.66 65.32 64.55
70.40 70.33 70.29 69.83 69.55 69.49 68.79 68.38 68.53 68.92 69.02 68.64 68.19 66.98 66.05 63.98 63.74 63.88 63.84 67.92 68.72 68.33 67.51 67.16 66.43 65.72 66.69 65.91 66.19 66.14 65.33 64.64 64.10
69.15 68.61 68.94 69.60 69.51 69.69 69.30 69.28 68.67 68.90 68.90 67.47 66.54 65.58 65.25 63.93 64.01 64.13 64.39 67.64 67.94 67.73 66.82 66.26 65.64 65.51 66.16 65.91 65.05 64.55 63.40 64.00 63.96
64.53 65.33 67.29 68.38 69.37 69.15 68.56 68.94 68.44 67.62 66.79 66.60 65.59 64.09 63.02 63.15 63.35 64.00 66.56 66.41 66.78 66.54 65.67 66.12 65.35 65.50 64.78 64.46 63.80 63.36 63.10 62.95 62.79
62.20 63.35 65.59 67.90 68.38 67.65 68.33 67.99 66.85 63.97 63.35 63.49 63.75 61.98 61.74 62.10 62.83 64.45 66.73 66.40 66.33 66.21 65.08 65.48 64.66 64.32 63.62 63.45 63.11 62.34 62.61 62.09 62.34
61.80 62.49 62.24 64.36 64.29 64.58 63.88 62.60 59.65 60.25 61.81 61.69 61.33 59.60 60.69 61.29 61.80 64.69 66.10 66.20 65.77 65.30 65.05 64.22 63.96 63.45 63.13 62.62 62.17 61.91 61.88 60.86 60.48
61.12 61.83 62.14 62.41 63.43 60.86 60.30 59.62 57.40 57.31 58.91 60.12 61.07 60.26 60.00 59.61 60.06 62.45 64.59 65.55 65.26 64.77 64.34 64.47 63.72 62.80 62.76 62.10 61.64 61.25 60.23 59.67 59.05
59.86 59.60 60.59 60.48 61.92 59.78 60.32 58.36 58.15 56.94 57.01 55.36 60.88 59.96 59.50 60.25 59.89 60.73 62.66 64.36 64.37 64.51 64.68 64.00 63.24 62.59 62.16 61.90 60.94 59.94 59.13 58.79 58.55
58.85 58.38 59.40 59.61 61.71 61.36 60.54 58.40 58.25 57.02 54.54 53.70 54.45 57.65 58.47 57.67 58.54 58.39 61.20 63.63 64.63 64.71 63.72 63.52 63.14 62.17 62.96 61.47 59.97 58.99 58.66 58.26 57.95
58.50 58.14 58.72 58.96 61.10 60.76 58.42 58.58 57.23 55.59 54.70 53.53 53.84 56.61 56.39 56.37 56.88 57.97 58.06 62.19 62.64 64.38 63.84 63.29 62.67 63.10 62.30 60.57 59.32 58.38 57.93 57.48 57.30
58.13 57.83 57.27 58.39 59.48 60.37 59.21 58.13 56.43 54.92 53.52 52.48 52.62 54.12 56.10 56.23 57.30 57.39 57.49 57.71 60.55 62.71 63.44 62.94 62.79 62.52 60.84 59.91 58.93 57.91 57.24 56.78 56.41
57.99 57.60 57.55 57.10 57.38 57.50 58.16 57.04 56.76 54.97 52.69 52.86 52.28 52.68 53.89 56.23 58.70 57.62 57.19 56.68 57.33 58.14 61.91 61.94 62.13 61.50 60.04 59.39 58.59 57.47 56.74 56.08 55.42
57.29 57.16 57.17 56.40 56.17 55.85 56.52 56.57 56.38 55.33 54.60 54.67 52.66 51.91 52.38 53.18 57.03 57.83 58.14 58.21 57.21 58.24 58.61 58.98 59.18 60.55 59.99 59.03 58.24 57.31 56.45 55.63 54.73
57.31 55.21 55.55 55.42 54.33 54.70 54.18 55.98 55.66 54.58 53.85 52.68 50.43 49.84 50.50 51.04 53.23 54.64 56.29 58.01 58.53 57.34 57.64 57.36 56.83 57.73 59.96 59.11 57.88 57.00 56.46 55.59 54.43
55.92 54.35 53.67 54.58 54.07 52.92 52.20 54.97 53.87 52.46 53.70 50.77 47.57 46.16 47.97 49.25 50.74 51.26 53.76 56.53 57.19 56.14 56.58 55.58 55.43 54.91 54.17 53.73 57.96 56.88 56.38 56.11 54.76
53.47 52.29 51.10 51.38 51.93 51.45 51.49 53.53 53.99 50.86 51.40 53.00 47.77 43.35 42.96 45.05 47.94 49.53 50.71 52.26 55.17 55.94 55.19 54.59 52.66 52.31 51.84 53.51 55.22 56.43 55.88 55.77 55.50
51.65 51.57 50.16 49.83 50.35 50.56 50.94 53.16 53.69 52.37 49.64 49.41 50.47 48.42 46.13 43.04 41.84 46.77 49.17 50.18 51.32 52.16 53.61 54.32 52.59 51.02 49.60 50.77 51.14 54.28 55.23 55.00 55.29
51.44 50.34 49.54 48.95 49.50 49.94 50.65 51.46 52.75 51.92 50.57 49.31 48.68 47.85 48.08 47.42 43.98 41.73 45.05 46.25 47.96 49.85 51.24 51.92 50.16 50.28 48.86 48.07 49.11 53.27 53.43 54.33 54.67
MSLP
1018.21 1018.59 1018.97 1019.39 1019.76 1020.05 1020.27 1020.46 1020.61 1020.72 1020.78 1020.85 1020.96 1021.11 1021.33 1021.54 1021.77 1022.06 1021.94 1022.12 1022.14 1022.42 1022.74 1022.93 1023.20 1023.51 1023.48 1023.53 1023.74 1023.82 1023.97 1024.06 1024.11
1018.54 1018.86 1019.23 1019.65 1019.99 1020.27 1020.51 1020.72 1020.86 1020.94 1021.03 1021.11 1021.23 1021.44 1021.66 1021.90 1022.27 1022.43 1022.41 1022.41 1022.53 1022.68 1023.07 1023.39 1023.73 1023.81 1023.95 1024.18 1024.27 1024.31 1024.35 1024.56 1024.65
1018.67 1019.06 1019.39 1019.79 1020.11 1020.37 1020.66 1020.91 1021.07 1021.14 1021.20 1021.31 1021.34 1021.63 1021.93 1022.09 1022.47 1022.65 1022.79 1022.86 1022.88 1023.14 1023.46 1023.84 1024.04 1024.26 1024.39 1024.66 1024.63 1024.77 1024.71 1024.99 1024.92
1018.74 1019.15 1019.46 1019.80 1020.13 1020.43 1020.81 1021.03 1021.25 1021.35 1021.48 1021.62 1021.73 1021.98 1022.16 1022.32 1022.63 1022.97 1023.36 1023.18 1023.31 1023.66 1023.93 1024.17 1024.37 1024.62 1024.73 1024.90 1025.02 1025.16 1025.25 1025.37 1025.42
1018.92 1019.27 1019.56 1019.86 1020.13 1020.60 1020.95 1021.10 1021.34 1021.51 1021.74 1022.00 1022.30 1022.44 1022.64 1022.75 1023.08 1023.30 1023.56 1023.58 1023.76 1024.01 1024.27 1024.52 1024.76 1024.94 1025.14 1025.37 1025.45 1025.55 1025.55 1025.72 1025.79
1019.17 1019.45 1019.72 1019.94 1020.19 1020.70 1021.02 1021.16 1021.52 1021.67 1021.99 1022.28 1022.63 1022.78 1022.96 1023.18 1023.48 1023.67 1023.83 1024.03 1024.13 1024.39 1024.63 1024.81 1025.12 1025.31 1025.47 1025.68 1025.83 1025.94 1026.12 1026.15 1026.34
1019.21 1019.50 1019.77 1020.08 1020.43 1020.85 1021.00 1021.22 1021.68 1022.05 1022.34 1022.56 1022.78 1022.96 1023.20 1023.46 1023.67 1023.79 1023.88 1024.21 1024.48 1024.70 1024.94 1025.10 1025.34 1025.54 1025.78 1026.01 1026.16 1026.31 1026.49 1026.66 1026.82
1019.25 1019.61 1020.00 1020.27 1020.65 1021.11 1021.35 1021.52 1022.06 1022.35 1022.44 1022.62 1022.76 1023.07 1023.24 1023.47 1023.83 1023.94 1024.12 1024.32 1024.63 1025.00 1025.14 1025.44 1025.59 1025.76 1025.96 1026.20 1026.35 1026.62 1026.86 1027.05 1027.18
1019.48 1019.86 1020.14 1020.41 1020.91 1021.34 1021.56 1021.67 1022.11 1022.30 1022.41 1022.59 1022.87 1023.12 1023.34 1023.56 1023.98 1024.28 1024.27 1024.44 1024.79 1025.15 1025.49 1025.64 1025.90 1026.09 1026.34 1026.43 1026.66 1026.93 1027.21 1027.35 1027.47
1019.73 1020.05 1020.25 1020.63 1020.97 1021.38 1021.55 1021.78 1022.06 1022.30 1022.40 1022.68 1022.86 1023.12 1023.41 1023.71 1024.13 1024.45 1024.48 1024.62 1024.93 1025.11 1025.43 1025.65 1025.87 1026.27 1026.48 1026.76 1027.05 1027.30 1027.48 1027.62 1027.69
1019.85 1020.22 1020.48 1020.77 1020.90 1021.19 1021.34 1021.80 1021.93 1022.37 1022.63 1022.87 1023.01 1023.19 1023.60 1023.94 1024.22 1024.58 1024.76 1024.86 1024.94 1025.09 1025.38 1025.77 1026.05 1026.29 1026.65 1026.92 1027.24 1027.43 1027.55 1027.69 1027.82
1019.83 1020.27 1020.49 1020.70 1020.77 1021.12 1021.50 1021.70 1021.90 1022.42 1022.71 1022.90 1023.21 1023.46 1023.86 1024.17 1024.40 1024.46 1024.92 1025.10 1025.18 1025.22 1025.42 1025.80 1026.11 1026.34 1026.70 1027.06 1027.38 1027.56 1027.69 1027.79 1027.81
1019.65 1020.21 1020.56 1020.68 1020.88 1021.09 1021.48 1021.67 1022.00 1022.55 1022.92 1023.34 1023.77 1023.82 1024.02 1024.33 1024.46 1024.69 1024.92 1025.23 1025.25 1025.42 1025.48 1025.78 1026.16 1026.48 1026.77 1027.11 1027.39 1027.65 1027.81 1027.91 1027.98
1019.54 1019.94 1020.26 1020.62 1020.90 1021.04 1021.24 1021.68 1021.88 1022.61 1023.18 1023.49 1023.91 1024.32 1024.33 1024.30 1024.14 1024.64 1024.92 1025.15 1025.40 1025.55 1025.64 1025.75 1026.05 1026.50 1026.89 1027.20 1027.40 1027.58 1027.78 1027.91 1028.01
1019.62 1019.80 1020.12 1020.54 1020.92 1021.21 1021.37 1021.81 1022.00 1022.53 1022.99 1023.67 1024.12 1024.30 1024.59 1024.44 1024.18 1024.19 1024.51 1024.86 1025.21 1025.37 1025.57 1025.91 1026.09 1026.38 1026.68 1027.10 1027.28 1027.44 1027.71 1027.82 1027.95
1019.74 1020.20 1020.18 1020.43 1020.84 1020.95 1021.38 1021.64 1022.14 1022.79 1022.95 1023.91 1024.67 1024.68 1024.54 1024.61 1024.50 1024.38 1024.35 1024.52 1024.89 1025.17 1025.39 1025.62 1025.95 1026.34 1026.42 1026.74 1027.03 1027.22 1027.48 1027.75 1027.91
1019.75 1020.19 1020.57 1020.71 1021.03 1021.22 1021.54 1021.90 1022.34 1022.70 1022.90 1023.82 1024.75 1025.24 1025.06 1024.59 1024.51 1024.52 1024.40 1024.26 1024.59 1024.91 1025.22 1025.47 1025.57 1025.99 1026.32 1026.46 1026.61 1026.91 1027.16 1027.34 1027.57
1019.85 1020.09 1020.43 1020.74 1020.95 1021.34 1021.62 1021.89 1022.12 1022.68 1023.24 1023.14 1023.98 1025.27 1025.07 1024.82 1024.52 1024.36 1024.30 1024.41 1024.35 1024.55 1024.83 1025.14 1025.50 1025.51 1025.75 1026.04 1026.33 1026.57 1026.92 1027.05 1027.27
1019.85 1020.05 1020.38 1020.62 1020.94 1021.19 1021.32 1021.58 1022.01 1022.23 1022.93 1023.53 1023.28 1023.60 1024.02 1024.57 1025.00 1024.52 1024.27 1024.27 1024.33 1024.36 1024.51 1024.77 1025.02 1025.26 1025.61 1025.74 1025.85 1026.13 1026.53 1026.77 1026.88
1019.90 1020.09 1020.40 1020.71 1020.84 1020.87 1021.12 1021.32 1021.62 1021.88 1022.35 1022.71 1023.11 1023.45 1023.68 1023.82 1024.23 1024.52 1024.31 1024.38 1024.02 1023.98 1024.12 1024.23 1024.63 1024.86 1025.22 1025.50 1025.61 1025.71 1026.04 1026.29 1026.47
Wind_Speed
19 20 20 18 17 17 16 15 15 15 14 14 13 17 18 13 9 7 12 8 20 22 22 22 21 18 19 19 20 20 20 20 21
18 19 19 18 17 17 16 16 16 15 13 11 12 16 14 10 7 5 6 11 21 21 22 21 19 18 19 20 20 20 21 20 21
19 18 18 17 17 17 16 16 15 15 11 12 17 16 13 10 9 8 7 14 18 18 20 19 17 18 18 18 17 18 21 21 18
17 17 17 17 16 16 15 16 15 13 12 17 18 15 12 10 7 8 4 13 18 17 17 18 18 17 18 19 18 19 21 18 19
14 13 14 16 16 14 14 16 15 13 16 19 17 15 12 9 7 5 5 12 15 15 17 17 17 17 18 19 18 18 17 18 16
9 9 11 16 14 14 14 16 12 10 17 16 11 10 6 7 4 4 13 12 14 15 16 17 18 17 17 18 16 17 16 16 16
7 8 12 13 14 15 15 15 13 8 4 8 9 5 7 5 4 4 14 15 16 16 16 17 18 17 16 16 16 15 16 15 15
4 3 3 4 9 5 5 10 4 5 4 3 4 5 6 5 4 6 13 16 16 15 17 16 16 16 16 15 15 14 15 14 14
4 3 4 4 4 5 4 4 5 6 5 5 6 6 5 4 4 5 13 16 16 15 15 16 16 15 15 14 14 14 13 13 12
4 4 3 3 5 4 5 4 4 5 4 4 8 6 6 8 4 3 10 13 14 16 16 15 15 14 13 14 14 13 13 12 12
4 4 3 4 5 5 5 4 4 4 5 4 5 6 6 6 7 5 4 11 14 15 16 14 14 12 14 13 13 12 12 12 11
6 4 3 4 4 6 4 3 4 4 3 5 5 6 6 5 5 6 4 6 9 13 15 14 14 14 14 13 12 12 11 11 11
5 4 3 3 3 4 3 3 4 4 5 3 4 4 5 6 7 5 4 3 3 9 15 13 14 15 13 13 12 11 11 10 10
5 4 4 3 1 2 2 2 5 4 3 4 3 4 4 5 7 9 6 6 4 3 8 13 14 14 13 12 12 11 11 10 9
4 4 4 3 2 4 2 3 2 4 6 4 3 3 2 2 3 8 6 6 6 6 6 5 7 13 15 14 13 12 11 11 9
5 3 2 2 3 3 3 3 4 1 3 4 2 3 3 2 1 1 4 6 8 6 5 5 4 6 15 16 15 13 13 11 10
5 5 3 4 4 4 2 3 3 2 4 4 3 1 4 3 3 2 3 6 6 7 7 6 9 7 4 7 15 15 14 13 12
6 5 5 4 3 4 3 3 4 3 1 9 5 2 5 1 2 4 3 5 6 7 8 8 7 8 8 9 10 14 15 15 13
4 4 4 5 4 5 4 4 3 3 5 1 2 2 4 4 1 2 4 4 5 6 6 8 10 9 6 9 11 13 13 17 16
5 5 5 5 4 5 6 5 5 4 5 4 3 2 3 2 3 3 4 1 4 5 6 7 6 8 8 7 10 17 19 19 18
Wind_Direction
128 124 121 119 119 120 120 118 117 117 111 104 84 95 99 90 81 66 101 98 109 105 104 101 97 99 93 93 95 92 85 85 87
129 128 126 127 127 126 125 125 124 122 116 107 107 107 96 97 81 79 81 102 107 105 99 95 99 97 96 93 93 97 95 92 86
137 134 132 132 132 131 130 131 129 126 117 101 104 87 96 97 92 72 78 103 102 100 101 105 107 100 98 101 99 97 95 88 93
141 138 139 139 137 134 139 136 135 128 114 98 93 86 86 96 90 92 72 104 107 110 111 111 106 102 104 102 96 94 91 93 86
144 140 147 149 141 142 150 142 142 135 117 102 98 96 89 91 91 80 97 100 111 117 116 113 111 113 104 101 98 94 100 94 88
132 139 137 144 134 139 149 139 125 132 111 117 115 103 103 100 100 111 114 119 116 115 120 119 118 110 104 104 108 102 97 92 90
135 142 143 138 132 143 135 111 118 101 113 121 127 121 117 111 102 120 127 126 126 125 118 122 117 118 119 114 110 110 97 94 93
124 119 147 138 122 134 121 116 123 133 130 138 124 130 128 126 103 129 127 127 125 128 128 124 130 128 127 122 117 115 104 100 98
116 132 148 122 131 134 147 133 160 158 166 157 138 139 130 115 119 138 138 132 139 137 137 139 133 136 125 127 116 108 110 107 106
108 98 111 137 135 148 169 159 164 180 172 155 153 144 133 132 129 136 144 144 149 151 147 144 144 138 134 122 119 119 117 113 110
118 109 117 137 156 164 182 170 158 147 138 134 135 151 135 125 139 138 141 155 154 159 156 150 144 144 136 132 130 131 126 124 114
133 128 138 131 151 172 149 195 115 110 113 99 78 139 125 128 133 139 148 161 167 164 155 159 156 150 143 141 142 139 132 127 121
145 146 148 135 161 168 164 153 129 124 123 105 87 117 124 145 149 140 145 159 174 172 156 167 162 154 153 153 151 146 142 136 126
154 158 177 160 149 182 155 138 135 136 121 133 98 118 154 172 159 166 169 176 173 179 172 168 164 157 163 165 162 158 152 146 138
157 178 198 171 177 161 131 142 113 154 147 135 102 42 92 163 172 171 176 179 173 172 175 170 162 163 172 177 175 170 167 161 154
139 166 229 197 178 182 160 116 137 102 128 108 52 16 24 50 267 245 192 179 176 174 168 165 159 175 179 182 185 183 180 176 170
147 150 164 176 149 166 181 170 135 115 168 133 106 187 326 316 246 212 215 174 167 175 173 174 172 173 181 189 189 191 191 189 186
161 166 163 167 148 184 182 185 160 141 298 160 142 134 219 159 276 240 226 197 181 182 183 180 192 184 183 188 189 192 202 202 201
175 175 185 187 182 187 196 178 172 149 165 314 202 154 149 184 238 271 230 221 208 192 194 191 193 189 189 188 184 190 201 211 212
194 194 200 213 207 207 203 186 183 177 164 174 167 189 212 198 140 211 235 254 229 213 198 194 188 192 189 195 198 192 199 213 219